Hourly Data Report for July 02, 2021

TORONTO CITY
ONTARIO
Current Station Operator: ECCC - MSC

43°40'00.000" N
79°24'00.000" W
112.50 m
6158355
71508
XTO

Download Data

Hourly Data (July 2021)
Hourly Data Report for July 2, 2021
TIME
LST
Temp Definition
°C
Dew Point Definition
°C
Rel Hum Definition
%
Precip. Amount Definition
mm

Wind Dir Definition
10's deg

Wind Spd Definition
km/h
Visibility Definition
km
Stn Press Definition
kPa
Hmdx Definition


Wind Chill Definition


Weather Definition


00:00 18.1 11.7 66 0.0       99.80     LegendNANA
01:00 17.7 12.4 71 0.0       99.78     LegendNANA
02:00 17.3 13.2 76 0.0       99.73     LegendNANA
03:00 17.4 13.8 80 0.0       99.72     LegendNANA
04:00 16.6 13.8 84 0.0       99.74     LegendNANA
05:00 16.9 14.2 84 0.0       99.78     LegendNANA
06:00 17.4 14.1 81 0.0       99.79     LegendNANA
07:00 18.5 13.8 75 0.0       99.81     LegendNANA
08:00 19.7 14.4 72 0.0       99.86     LegendNANA
09:00 19.9 13.5 66 0.0       99.85     LegendNANA
10:00 21.0 13.6 63 0.0       99.83     LegendNANA
11:00 22.6 14.6 61 0.0       99.82 26   LegendNANA
12:00 22.5 13.7 58 0.0       99.81 26   LegendNANA
13:00 23.9 13.5 52 0.0       99.75 27   LegendNANA
14:00 24.2 13.3 51 0.0       99.71 27   LegendNANA
15:00 21.4 13.0 59 0.0       99.78     LegendNANA
16:00 17.3 15.3 89 4.8       99.81     LegendNANA
17:00 19.3 15.8 80 0.1       99.86     LegendNANA
18:00 20.1 17.1 83 0.0       99.81 25   LegendNANA
19:00 19.7 15.9 79 0.2       99.84     LegendNANA
20:00 18.9 15.2 79 0.0       99.86     LegendNANA
21:00 18.4 14.5 78 0.0       99.88     LegendNANA
22:00 18.3 14.2 77 0.0       99.85     LegendNANA
23:00 17.8 14.2 80 0.0       99.82     LegendNANA

Notes on Data Quality.

Legend

  • E = Estimated
  • M = Missing
  • NA = Not Available*
  • [empty] = Indicates an unobserved value
Date modified: